Starlink 11365

operational
NORAD ID: 62886 Int'l Des: 2025-024 Owner: SPXS Country: US Constellation: starlink
LEOCIRCULAR

About Starlink 11365

Description loading...

Live Position

Loading 3D Globe...

Upcoming Passes

Altitude History

Altitude vs Time

uPlot chart will show altitude changes over time

Two-Line Element Set

1 62886U 25024H 25258.98635933 .00206411 00000-0 15643-2 0 9996
2 62886 42.9995 154.2101 0002235 247.4647 112.5985 15.70962935 35994
Epoch: Sep 15, 2025 • Age: 23 hours

Current Status

Altitude 355.0 km
Velocity 7.70 km/s
Sub-Earth Point 2.77°N, 176.67°E
Launch Date Feb 4, 2025
Age 0.6 years
Type internet

Technical Details

Classification Payload
Mass 960.00 kg
Dry Mass 910.00 kg
Total Mass 960.00 kg
Length 0.30 m
Diameter 4.10 m
Span 29.00 m
Shape Box + pan
Manufacturer SPXS
Bus Type Starlink V2MD
Phase Status In Orbit
Owner/State SPXS/US

Large Constellations

Loading constellations...